Radiation Dose at Monitoring Post of Fukushima Daini Nuclear Power Station
Date,Time,MP-1(microSv/h),MP-2(microSv/h),MP-3(microSv/h),MP-4(microSv/h),MP-5(microSv/h),MP-6(microSv/h),MP-7(microSv/h),Wind Direction,Wind Velocity(m/s),Rain
2019/11/12,00:00,0.184,0.162,0.274,0.257,0.259,0.140,0.086,west,7.4,No
2019/11/12,00:10,0.184,0.162,0.273,0.257,0.259,0.139,0.087,west-southwest,4.2,No
2019/11/12,00:20,0.183,0.161,0.273,0.257,0.261,0.140,0.087,south-southwest,3.7,No
2019/11/12,00:30,0.184,0.161,0.273,0.255,0.260,0.140,0.086,southwest,5.8,No
2019/11/12,00:40,0.183,0.162,0.272,0.258,0.261,0.140,0.087,southwest,3.5,No
2019/11/12,00:50,0.184,0.161,0.274,0.256,0.261,0.139,0.087,south,3.3,No
2019/11/12,01:00,0.185,0.163,0.272,0.257,0.261,0.141,0.087,south,3.6,No
2019/11/12,01:10,0.184,0.163,0.274,0.257,0.262,0.140,0.087,south,3.8,No
2019/11/12,01:20,0.184,0.161,0.275,0.256,0.260,0.140,0.087,south,3.3,No
2019/11/12,01:30,0.184,0.162,0.273,0.255,0.260,0.140,0.087,south,3.7,No
2019/11/12,01:40,0.183,0.162,0.273,0.258,0.261,0.140,0.086,south,4.7,No
2019/11/12,01:50,0.184,0.162,0.274,0.255,0.259,0.140,0.087,south-southeast,3.9,No
2019/11/12,02:00,0.184,0.162,0.273,0.256,0.261,0.140,0.087,south,3.6,No
2019/11/12,02:10,0.184,0.162,0.274,0.257,0.261,0.140,0.086,south,1.6,No
2019/11/12,02:20,0.185,0.162,0.274,0.255,0.260,0.140,0.087,south,3.3,No
2019/11/12,02:30,0.184,0.162,0.272,0.256,0.261,0.140,0.087,south,2.0,No
2019/11/12,02:40,0.184,0.162,0.273,0.257,0.260,0.139,0.086,south-southwest,1.6,No
2019/11/12,02:50,0.185,0.162,0.273,0.257,0.261,0.139,0.086,west,4.4,No
2019/11/12,03:00,0.184,0.162,0.272,0.256,0.261,0.141,0.086,west-northwest,1.8,No
2019/11/12,03:10,0.184,0.163,0.274,0.257,0.260,0.140,0.086,-,CALM,No
2019/11/12,03:20,0.185,0.162,0.273,0.256,0.261,0.139,0.087,southeast,3.3,No
2019/11/12,03:30,0.184,0.161,0.272,0.257,0.259,0.140,0.086,south,2.6,No
2019/11/12,03:40,0.184,0.163,0.275,0.256,0.261,0.140,0.086,west-northwest,3.3,No
2019/11/12,03:50,0.184,0.161,0.272,0.257,0.261,0.139,0.086,northwest,8.1,No
2019/11/12,04:00,0.184,0.161,0.273,0.256,0.259,0.140,0.086,west-northwest,7.8,No
2019/11/12,04:10,0.183,0.162,0.274,0.256,0.261,0.141,0.086,west-northwest,5.0,No
2019/11/12,04:20,0.183,0.161,0.272,0.256,0.259,0.140,0.086,northwest,4.4,No
2019/11/12,04:30,0.185,0.163,0.275,0.257,0.260,0.140,0.086,west-northwest,6.3,No
2019/11/12,04:40,0.184,0.161,0.273,0.255,0.261,0.139,0.086,west-northwest,5.4,No
2019/11/12,04:50,0.184,0.162,0.272,0.255,0.260,0.140,0.086,west-northwest,4.0,No
2019/11/12,05:00,0.185,0.161,0.273,0.257,0.261,0.140,0.086,west-northwest,5.8,No
2019/11/12,05:10,0.184,0.162,0.273,0.255,0.260,0.140,0.086,west,7.8,No
2019/11/12,05:20,0.184,0.162,0.273,0.256,0.258,0.139,0.086,west,7.6,No
2019/11/12,05:30,0.183,0.161,0.274,0.257,0.261,0.138,0.086,west-northwest,7.3,No
2019/11/12,05:40,0.183,0.162,0.273,0.257,0.259,0.140,0.086,west-northwest,4.9,No
2019/11/12,05:50,0.185,0.162,0.275,0.257,0.260,0.140,0.087,west-northwest,3.5,No
2019/11/12,06:00,0.183,0.162,0.273,0.256,0.259,0.140,0.085,west,4.4,No
2019/11/12,06:10,0.185,0.162,0.273,0.256,0.258,0.140,0.086,west,4.9,No
2019/11/12,06:20,0.183,0.161,0.275,0.257,0.261,0.139,0.086,west-southwest,4.5,No
2019/11/12,06:30,0.184,0.162,0.272,0.258,0.259,0.139,0.086,west-southwest,3.3,No
2019/11/12,06:40,0.183,0.162,0.274,0.256,0.260,0.139,0.086,west-southwest,3.4,No
2019/11/12,06:50,0.184,0.161,0.274,0.258,0.260,0.139,0.086,west,2.6,No
2019/11/12,07:00,0.184,0.163,0.274,0.256,0.259,0.140,0.086,west-southwest,2.2,No
2019/11/12,07:10,0.185,0.162,0.274,0.256,0.260,0.139,0.086,west,1.8,No
2019/11/12,07:20,0.184,0.162,0.274,0.256,0.258,0.139,0.086,west,1.4,No
2019/11/12,07:30,0.185,0.163,0.273,0.255,0.260,0.140,0.086,west-northwest,1.6,No
2019/11/12,07:40,0.184,0.161,0.274,0.257,0.261,0.140,0.085,west-northwest,2.0,No
2019/11/12,07:50,0.183,0.162,0.274,0.255,0.259,0.139,0.086,northwest,5.2,No
2019/11/12,08:00,0.184,0.162,0.274,0.256,0.260,0.139,0.087,northwest,5.2,No
2019/11/12,08:10,0.183,0.161,0.275,0.256,0.259,0.140,0.085,northwest,4.7,No
2019/11/12,08:20,0.185,0.161,0.272,0.255,0.259,0.139,0.085,northwest,4.1,No
2019/11/12,08:30,0.185,0.162,0.275,0.254,0.260,0.139,0.086,northwest,2.3,No
2019/11/12,08:40,0.183,0.161,0.275,0.256,0.259,0.140,0.085,north,1.1,No
2019/11/12,08:50,0.184,0.161,0.272,0.255,0.261,0.139,0.086,northwest,2.0,No
2019/11/12,09:00,0.183,0.161,0.274,0.255,0.258,0.140,0.087,southeast,1.3,No
2019/11/12,09:10,0.185,0.162,0.273,0.257,0.260,0.140,0.086,east-southeast,1.5,No
2019/11/12,09:20,0.183,0.160,0.273,0.254,0.258,0.140,0.086,southeast,1.6,No
2019/11/12,09:30,0.184,0.162,0.274,0.253,0.263,0.140,0.086,southeast,1.4,No
2019/11/12,09:40,0.182,0.162,0.273,0.256,0.258,0.140,0.086,southeast,2.3,No
2019/11/12,09:50,0.184,0.161,0.274,0.254,0.258,0.139,0.086,southeast,2.9,No
2019/11/12,10:00,0.183,0.162,0.272,0.254,0.260,0.140,0.087,southeast,3.1,No
2019/11/12,10:10,0.183,0.161,0.274,0.258,0.258,0.140,0.085,south-southeast,2.7,No
2019/11/12,10:20,0.184,0.162,0.272,0.255,0.259,0.140,0.087,south,1.9,No
2019/11/12,10:30,0.184,0.161,0.273,0.256,0.260,0.139,0.087,south,1.8,No
2019/11/12,10:40,0.185,0.162,0.272,0.256,0.258,0.141,0.086,south-southeast,3.8,No
2019/11/12,10:50,0.183,0.161,0.275,0.256,0.262,0.140,0.087,south-southeast,2.8,No
2019/11/12,11:00,0.184,0.162,0.273,0.259,0.259,0.141,0.087,south,3.1,No
2019/11/12,11:10,0.184,0.161,0.275,0.256,0.259,0.140,0.086,south,2.2,No
2019/11/12,11:20,0.184,0.162,0.273,0.257,0.260,0.140,0.087,south-southeast,2.8,No
2019/11/12,11:30,0.183,0.163,0.274,0.255,0.258,0.139,0.086,south-southeast,1.7,No
2019/11/12,11:40,0.183,0.163,0.273,0.258,0.262,0.140,0.086,south-southeast,3.0,No
2019/11/12,11:50,0.185,0.161,0.275,0.257,0.259,0.140,0.085,southeast,3.6,No
2019/11/12,12:00,0.183,0.162,0.273,0.255,0.260,0.140,0.087,east-southeast,3.4,No
2019/11/12,12:10,0.185,0.163,0.276,0.256,0.262,0.141,0.086,east-southeast,2.9,No
2019/11/12,12:20,0.183,0.161,0.274,0.257,0.260,0.140,0.086,southeast,2.2,No
2019/11/12,12:30,0.185,0.162,0.274,0.255,0.262,0.139,0.087,east-southeast,2.2,No
2019/11/12,12:40,0.184,0.162,0.273,0.257,0.259,0.141,0.087,east-southeast,0.7,No
2019/11/12,12:50,0.184,0.162,0.274,0.256,0.261,0.141,0.086,east-southeast,2.2,No
2019/11/12,13:00,0.184,0.161,0.272,0.254,0.259,0.141,0.086,east-southeast,2.1,No
2019/11/12,13:10,0.184,0.161,0.275,0.257,0.259,0.140,0.087,east-southeast,1.5,No
2019/11/12,13:20,0.183,0.161,0.271,0.256,0.260,0.140,0.086,-,CALM,No
2019/11/12,13:30,0.185,0.161,0.273,0.255,0.257,0.141,0.086,-,CALM,No
2019/11/12,13:40,0.182,0.161,0.272,0.258,0.260,0.140,0.086,west,5.1,No
2019/11/12,13:50,0.185,0.161,0.275,0.255,0.261,0.141,0.086,northwest,6.1,No
2019/11/12,14:00,0.185,0.162,0.272,0.254,0.257,0.139,0.086,northwest,5.9,No
2019/11/12,14:10,0.184,0.161,0.275,0.257,0.260,0.139,0.086,northwest,7.1,No
2019/11/12,14:20,0.184,0.161,0.274,0.258,0.259,0.140,0.085,northwest,6.5,No
2019/11/12,14:30,0.185,0.162,0.275,0.258,0.263,0.140,0.087,northwest,5.1,No
2019/11/12,14:40,0.184,0.162,0.274,0.257,0.260,0.141,0.086,northwest,3.2,No
2019/11/12,14:50,0.185,0.162,0.271,0.257,0.262,0.141,0.087,north-northwest,3.3,No
2019/11/12,15:00,0.184,0.163,0.270,0.257,0.260,0.140,0.086,north-northwest,4.8,No
2019/11/12,15:10,0.186,0.163,0.273,0.257,0.262,0.140,0.086,north-northwest,3.7,No
2019/11/12,15:20,0.185,0.163,0.274,0.258,0.259,0.141,0.086,north-northwest,2.6,No
2019/11/12,15:30,0.184,0.163,0.275,0.257,0.262,0.140,0.086,north-northwest,4.8,No
2019/11/12,15:40,0.183,0.163,0.275,0.258,0.260,0.139,0.087,north-northwest,4.7,No
2019/11/12,15:50,0.185,0.163,0.275,0.256,0.263,0.141,0.086,north-northwest,5.3,No
2019/11/12,16:00,0.184,0.163,0.276,0.259,0.259,0.140,0.086,north-northwest,5.0,No
2019/11/12,16:10,0.186,0.163,0.276,0.257,0.262,0.140,0.086,north-northwest,5.4,No
2019/11/12,16:20,0.185,0.163,0.275,0.258,0.260,0.140,0.087,north-northwest,6.1,No
2019/11/12,16:30,0.185,0.162,0.274,0.257,0.261,0.141,0.087,north-northwest,5.1,No
2019/11/12,16:40,0.184,0.164,0.275,0.258,0.261,0.141,0.085,north-northwest,4.8,No
2019/11/12,16:50,0.184,0.163,0.274,0.258,0.261,0.141,0.087,northwest,3.4,No
2019/11/12,17:00,0.186,0.163,0.274,0.258,0.262,0.141,0.086,northwest,2.1,No
2019/11/12,17:10,0.184,0.164,0.276,0.259,0.261,0.141,0.086,northwest,2.0,No
2019/11/12,17:20,0.185,0.163,0.275,0.258,0.262,0.141,0.087,northwest,1.4,No
2019/11/12,17:30,0.185,0.163,0.276,0.258,0.261,0.141,0.086,northwest,2.5,No
2019/11/12,17:40,0.185,0.163,0.275,0.259,0.261,0.141,0.087,northwest,3.4,No
2019/11/12,17:50,0.185,0.163,0.275,0.258,0.261,0.142,0.087,northwest,3.8,No
2019/11/12,18:00,0.184,0.163,0.275,0.258,0.261,0.141,0.088,northwest,3.1,No
2019/11/12,18:10,0.186,0.164,0.276,0.258,0.261,0.142,0.087,northwest,3.1,No
2019/11/12,18:20,0.186,0.162,0.275,0.258,0.262,0.141,0.088,northwest,2.4,No
2019/11/12,18:30,0.185,0.163,0.276,0.258,0.260,0.142,0.088,north-northwest,2.4,No
2019/11/12,18:40,0.186,0.164,0.275,0.259,0.263,0.142,0.087,-,CALM,No
2019/11/12,18:50,0.186,0.163,0.276,0.259,0.260,0.142,0.087,west-northwest,1.3,No
2019/11/12,19:00,0.185,0.163,0.277,0.257,0.261,0.142,0.087,northwest,1.5,No
2019/11/12,19:10,0.186,0.164,0.275,0.259,0.262,0.140,0.087,north-northwest,1.7,No
2019/11/12,19:20,0.186,0.163,0.275,0.260,0.260,0.141,0.087,northwest,2.4,No
2019/11/12,19:30,0.186,0.164,0.277,0.259,0.260,0.141,0.087,northwest,2.3,No
2019/11/12,19:40,0.186,0.163,0.276,0.259,0.260,0.141,0.087,northwest,2.7,No
2019/11/12,19:50,0.185,0.164,0.276,0.259,0.262,0.141,0.087,northwest,3.3,No
2019/11/12,20:00,0.186,0.163,0.276,0.258,0.261,0.141,0.088,west-northwest,3.1,No
2019/11/12,20:10,0.187,0.163,0.275,0.257,0.262,0.142,0.087,west-northwest,4.1,No
2019/11/12,20:20,0.186,0.164,0.275,0.259,0.262,0.141,0.087,west-northwest,5.2,No
2019/11/12,20:30,0.186,0.164,0.277,0.259,0.260,0.142,0.087,west-northwest,5.4,No
2019/11/12,20:40,0.186,0.164,0.277,0.259,0.263,0.141,0.087,west-northwest,5.8,No
2019/11/12,20:50,0.185,0.164,0.276,0.259,0.261,0.141,0.087,west-northwest,5.6,No
2019/11/12,21:00,0.185,0.164,0.276,0.259,0.261,0.141,0.088,west-northwest,3.6,No
2019/11/12,21:10,0.187,0.163,0.276,0.259,0.261,0.142,0.088,west-northwest,3.8,No
2019/11/12,21:20,0.186,0.164,0.276,0.259,0.262,0.141,0.088,northwest,3.5,No
2019/11/12,21:30,0.186,0.163,0.278,0.260,0.261,0.141,0.087,west-northwest,3.2,No
2019/11/12,21:40,0.186,0.163,0.275,0.259,0.262,0.140,0.087,west-northwest,2.8,No
2019/11/12,21:50,0.185,0.164,0.276,0.259,0.260,0.142,0.087,west-northwest,3.9,No
2019/11/12,22:00,0.186,0.163,0.276,0.259,0.261,0.141,0.087,west-northwest,5.6,No
2019/11/12,22:10,0.186,0.163,0.276,0.258,0.261,0.141,0.088,west-northwest,5.4,No
2019/11/12,22:20,0.186,0.164,0.275,0.259,0.260,0.142,0.087,west-northwest,4.1,No
2019/11/12,22:30,0.185,0.164,0.276,0.260,0.261,0.141,0.087,west-northwest,5.4,No
2019/11/12,22:40,0.186,0.163,0.275,0.258,0.260,0.141,0.087,west-northwest,7.1,No
2019/11/12,22:50,0.185,0.163,0.275,0.259,0.261,0.142,0.088,west-northwest,8.8,No
2019/11/12,23:00,0.186,0.164,0.277,0.260,0.262,0.141,0.087,west-northwest,9.0,No
2019/11/12,23:10,0.186,0.163,0.276,0.259,0.262,0.141,0.087,west-northwest,8.5,No
2019/11/12,23:20,0.185,0.163,0.275,0.258,0.261,0.142,0.087,northwest,8.5,No
2019/11/12,23:30,0.187,0.164,0.276,0.259,0.261,0.141,0.088,northwest,7.4,No
2019/11/12,23:40,0.187,0.163,0.276,0.258,0.261,0.142,0.087,northwest,8.3,No
2019/11/12,23:50,0.186,0.163,0.275,0.259,0.262,0.141,0.088,northwest,9.2,No
